Location: Street
(51.1247°N, 2.7429°W)
Time: 07:22:04
(UTC+00:00)

SR - Pass Details

Date: 26 November 2020
Orbit: 576 x 880 km, 66.7° (Epoch: 16 January)

Event Time Altitude Azimuth Distance (km) Brightness Sun altitude
Rises 18:38:32 0° 185° (S) 2,800 ? -22.5°
Reaches altitude 10° 18:40:55 10° 174° (S) 1,927 ? -22.8°
Enters shadow 18:41:43 14° 168° (SSE) 1,662 ? -23.0°
Maximum altitude 18:44:39 29° 114° (ESE) 1,134 - -23.4°
Drops below altitude 10° 18:48:38 10° 54° (NE) 2,058 - -24.1°
Sets 18:51:14 0° 44° (NE) 3,026 - -24.5°
